This demonstration page uses our WeatherBlox Daily Observations layout. Learn more.

Left ArrowRight Arrow

38.20091, -84.87328

Hourly Observations for February 7, 2022

Temp ( °F °C ) Dew Point ( °F °C ) Humidity (%) Winds ( mph kmh ) Pressure ( in mb ) Visibility ( mi km ) Precip ( " mm )
12:53 am 00:53 Clear 25 -3.9 22 -5.6 88 88 Calm 30.25 1024 10 16 0.00 0.00
1:53 am 01:53 Clear 24 -4.4 21 -6.1 88 88 Calm 30.24 1024 10 16 0.00 0.00
2:53 am 02:53 Clear 23 -5 20 -6.7 88 88 Calm 30.23 1024 10 16 0.00 0.00
3:53 am 03:53 Clear 23 -5 20 -6.7 88 88 Calm 30.24 1024 10 16 0.00 0.00
4:53 am 04:53 Clear 22 -5.6 19 -7.2 89 89 Calm 30.22 1024 10 16 0.00 0.00
5:53 am 05:53 Clear 22 -5.6 19 -7.2 89 89 Calm 30.22 1024 10 16 0.00 0.00
6:53 am 06:53 Clear 21 -6.1 19 -7.2 92 92 Calm 30.23 1024 10 16 0.00 0.00
7:53 am 07:53 Sunny 21 -6.1 18 -7.8 88 88 Calm 30.24 1024 10 16 0.00 0.00
8:53 am 08:53 Sunny 29 -1.7 26 -3.3 89 89 Calm 30.24 1024 10 16 0.00 0.00
9:53 am 09:53 Sunny 35 1.7 27 -2.8 72 72 SW 6 9 30.22 1024 10 16 0.00 0.00
10:53 am 10:53 Sunny 38 3.3 28 -2.2 68 68 SSW 8 13 30.21 1023 10 16 0.00 0.00
11:53 am 11:53 Sunny 41 5 28 -2.2 60 60 WSW 8 13 30.20 1023 10 16 0.00 0.00
12:53 pm 12:53 Sunny 43 6.1 29 -1.7 58 58 W 8 13 30.19 1022 10 16 0.00 0.00
1:53 pm 13:53 Sunny 43 6.1 29 -1.7 58 58 W 10 17 30.17 1022 10 16 0.00 0.00
2:53 pm 14:53 Mostly Sunny 44 6.7 30 -1.1 58 58 WSW 12 19 30.16 1021 10 16 0.00 0.00
3:53 pm 15:53 Partly Cloudy 43 6.1 29 -1.7 58 58 W 13 20 30.16 1021 10 16 0.00 0.00
4:53 pm 16:53 Sunny 42 5.6 26 -3.3 53 53 W 10 17 30.17 1022 10 16 0.00 0.00
5:53 pm 17:53 Sunny 38 3.3 21 -6.1 51 51 WNW 7 11 30.19 1022 10 16 0.00 0.00
6:53 pm 18:53 Clear 34 1.1 19 -7.2 54 54 WNW 7 11 30.19 1023 10 16 0.00 0.00
7:53 pm 19:53 Clear 31 -0.6 19 -7.2 61 61 W 5 7 30.21 1023 10 16 0.00 0.00
8:53 pm 20:53 Clear 30 -1.1 16 -8.9 56 56 WNW 6 9 30.20 1023 10 16 0.00 0.00
9:53 pm 21:53 Clear 29 -1.7 15 -9.4 56 56 WNW 7 11 30.20 1023 10 16 0.00 0.00
10:53 pm 22:53 Clear 27 -2.8 15 -9.4 61 61 WNW 5 7 30.20 1023 10 16 0.00 0.00
11:53 pm 23:53 Clear 25 -3.9 16 -8.9 69 69 W 3 6 30.21 1023 10 16 0.00 0.00

Powered by AerisWeather